WAT33 KLAX-NZAA

Flight info

Callsign WAT33
Flight time N/A
Altitude 30000
Route SUMMR2 FICKY B577 BELAN/N0509F320 B577 QUIGG/N0502F340 B577 TUT B575 OGELA/N0493F360 B575 ELPAK
Aircraft B77W/H-SDE1E2E3FGHIJ2J3J4J5M1RWXY/LB1D1

Departure

Time N/A
Airport Los Angeles International Airport (KLAX)

Arrival

Time 2026-05-04 16:07
Airport Auckland International Airport (NZAA)
Time Latitude Longitude Altitude Speed Heading
2026-05-04 15:25 -33.36323 177.48112 32416 ft 499 kts 213°
2026-05-04 15:26 -33.42311 177.43939 32416 ft 498 kts 213°
2026-05-04 15:26 -33.51300 177.37661 32430 ft 498 kts 213°
2026-05-04 15:27 -33.60246 177.31399 32436 ft 498 kts 213°
2026-05-04 15:28 -33.69223 177.25099 32439 ft 498 kts 213°
2026-05-04 15:29 -33.78194 177.18788 32437 ft 498 kts 213°
2026-05-04 15:30 -33.99123 177.04004 32444 ft 499 kts 213°
2026-05-04 15:31 -34.08093 176.97641 32447 ft 499 kts 213°
2026-05-04 15:32 -34.22550 176.86297 32452 ft 495 kts 221°
2026-05-04 15:34 -34.36257 176.73725 32450 ft 495 kts 220°
2026-05-04 15:34 -34.44567 176.66279 32453 ft 495 kts 220°
2026-05-04 15:35 -34.52827 176.58863 32460 ft 494 kts 220°
2026-05-04 15:36 -34.61109 176.51399 32457 ft 494 kts 220°
2026-05-04 15:36 -34.66626 176.46416 32460 ft 494 kts 220°
2026-05-04 15:37 -34.72138 176.41428 32459 ft 494 kts 220°
2026-05-04 15:37 -34.77616 176.36464 32459 ft 494 kts 220°
2026-05-04 15:38 -34.83128 176.31460 32462 ft 494 kts 220°
2026-05-04 15:38 -34.88629 176.26458 32461 ft 494 kts 220°
2026-05-04 15:39 -34.94136 176.21441 32464 ft 494 kts 220°
2026-05-04 15:40 -35.02396 176.13899 32468 ft 494 kts 220°
2026-05-04 15:40 -35.07897 176.08867 32470 ft 494 kts 220°
2026-05-04 15:41 -35.13361 176.03860 32472 ft 494 kts 220°
2026-05-04 15:41 -35.18858 175.98813 32473 ft 494 kts 220°
2026-05-04 15:42 -35.23435 175.94604 32472 ft 493 kts 220°
2026-05-04 15:42 -35.29811 175.88732 32474 ft 493 kts 220°
2026-05-04 15:43 -35.34414 175.84485 32473 ft 493 kts 220°
2026-05-04 15:43 -35.39864 175.79448 32474 ft 494 kts 220°
2026-05-04 15:44 -35.45358 175.74361 32479 ft 494 kts 220°
2026-05-04 15:44 -35.50847 175.69271 32476 ft 494 kts 220°
2026-05-04 15:45 -35.56328 175.64179 32477 ft 494 kts 220°
2026-05-04 15:45 -35.61816 175.59072 32481 ft 495 kts 220°
2026-05-04 15:46 -35.67270 175.53988 32471 ft 495 kts 220°
2026-05-04 15:46 -35.72754 175.48866 32478 ft 495 kts 220°
2026-05-04 15:47 -35.78268 175.43704 31521 ft 508 kts 220°
2026-05-04 15:47 -35.81077 175.41070 30797 ft 505 kts 220°
2026-05-04 15:47 -35.83870 175.38453 30077 ft 499 kts 220°
2026-05-04 15:47 -35.86617 175.35879 29372 ft 492 kts 220°
2026-05-04 15:48 -35.89327 175.33335 28729 ft 486 kts 220°
2026-05-04 15:48 -35.91969 175.30853 28097 ft 481 kts 220°
2026-05-04 15:48 -35.97234 175.25896 26861 ft 471 kts 220°
2026-05-04 15:49 -35.99830 175.23448 26255 ft 467 kts 219°
2026-05-04 15:49 -36.02401 175.21021 25656 ft 463 kts 219°
2026-05-04 15:49 -36.04952 175.18611 25064 ft 465 kts 219°
2026-05-04 15:49 -36.07612 175.16090 24499 ft 498 kts 219°
2026-05-04 15:50 -36.10402 175.13443 24161 ft 500 kts 219°
2026-05-04 15:50 -36.13070 175.10923 23762 ft 466 kts 219°
2026-05-04 15:50 -36.15581 175.08552 22835 ft 442 kts 219°
2026-05-04 15:50 -36.17979 175.06283 21787 ft 425 kts 219°
2026-05-04 15:51 -36.20244 175.04135 21308 ft 398 kts 219°
2026-05-04 15:51 -36.22385 175.02102 20776 ft 378 kts 219°
2026-05-04 15:51 -36.24431 175.00157 20311 ft 365 kts 218°
2026-05-04 15:51 -36.26440 174.98243 19861 ft 366 kts 218°
2026-05-04 15:52 -36.28498 174.96280 19409 ft 385 kts 218°
2026-05-04 15:52 -36.30698 174.94180 18896 ft 411 kts 218°
2026-05-04 15:52 -36.32969 174.92013 18265 ft 417 kts 218°
2026-05-04 15:52 -36.35268 174.89822 17653 ft 405 kts 218°
2026-05-04 15:53 -36.37435 174.87755 17110 ft 390 kts 218°
2026-05-04 15:53 -36.39641 174.85649 16610 ft 407 kts 218°
2026-05-04 15:53 -36.41870 174.83518 16052 ft 401 kts 218°
2026-05-04 15:53 -36.44043 174.81441 15509 ft 387 kts 218°
2026-05-04 15:54 -36.46159 174.79416 15005 ft 390 kts 218°
2026-05-04 15:54 -36.48336 174.77329 14479 ft 395 kts 218°
2026-05-04 15:54 -36.50486 174.75267 13883 ft 385 kts 218°
2026-05-04 15:54 -36.52564 174.73274 13341 ft 370 kts 218°
2026-05-04 15:55 -36.54568 174.71350 12831 ft 357 kts 218°
2026-05-04 15:55 -36.56509 174.69486 12354 ft 349 kts 218°
2026-05-04 15:55 -36.58397 174.67669 11896 ft 348 kts 218°
2026-05-04 15:55 -36.60330 174.65809 11596 ft 353 kts 218°
2026-05-04 15:56 -36.62251 174.63960 11431 ft 343 kts 218°
2026-05-04 15:56 -36.64091 174.62189 11267 ft 325 kts 218°
2026-05-04 15:56 -36.65826 174.60516 11123 ft 306 kts 218°
2026-05-04 15:56 -36.67461 174.58941 10974 ft 289 kts 218°
2026-05-04 15:57 -36.69192 174.57388 10938 ft 327 kts 211°
2026-05-04 15:57 -36.71329 174.55915 10973 ft 373 kts 207°
2026-05-04 15:57 -36.73695 174.54426 10713 ft 384 kts 206°
2026-05-04 15:57 -36.76049 174.52956 9797 ft 372 kts 206°
2026-05-04 15:58 -36.78321 174.51511 8786 ft 361 kts 207°
2026-05-04 15:58 -36.80481 174.50111 8301 ft 336 kts 207°
2026-05-04 15:58 -36.82466 174.48809 8048 ft 309 kts 207°
2026-05-04 15:58 -36.84300 174.47602 7685 ft 290 kts 207°
2026-05-04 15:59 -36.86053 174.46446 7175 ft 280 kts 207°
2026-05-04 15:59 -36.87758 174.45322 6637 ft 292 kts 207°
2026-05-04 15:59 -36.89676 174.44078 6703 ft 330 kts 203°
2026-05-04 15:59 -36.92045 174.43366 6672 ft 367 kts 180°
2026-05-04 16:00 -36.94631 174.43753 6010 ft 382 kts 166°
2026-05-04 16:00 -36.97165 174.44433 5556 ft 355 kts 168°
2026-05-04 16:00 -36.99458 174.45018 5357 ft 317 kts 167°
2026-05-04 16:00 -37.01536 174.45520 5010 ft 292 kts 171°
2026-05-04 16:01 -37.03452 174.45845 4848 ft 264 kts 171°
2026-05-04 16:01 -37.05186 174.46133 4607 ft 245 kts 172°
2026-05-04 16:01 -37.06823 174.46403 4282 ft 228 kts 167°
2026-05-04 16:01 -37.08253 174.47100 3884 ft 213 kts 142°
2026-05-04 16:02 -37.09187 174.48423 3497 ft 198 kts 110°
2026-05-04 16:02 -37.09330 174.50091 3526 ft 198 kts 77°
2026-05-04 16:02 -37.08345 174.53336 4047 ft 202 kts 65°
2026-05-04 16:03 -37.07784 174.54965 4262 ft 205 kts 66°
2026-05-04 16:03 -37.07275 174.56628 4346 ft 205 kts 68°
2026-05-04 16:03 -37.06801 174.58310 4416 ft 205 kts 70°
2026-05-04 16:03 -37.06359 174.60010 4466 ft 202 kts 71°
2026-05-04 16:04 -37.05949 174.61567 4178 ft 175 kts 68°
2026-05-04 16:04 -37.05153 174.64335 2777 ft 171 kts 70°
2026-05-04 16:04 -37.04769 174.65724 2240 ft 167 kts 70°
2026-05-04 16:05 -37.04396 174.67060 1819 ft 156 kts 71°
2026-05-04 16:05 -37.04047 174.68300 1475 ft 147 kts 71°
2026-05-04 16:05 -37.03377 174.70703 1135 ft 146 kts 72°
2026-05-04 16:06 -37.03049 174.71894 917 ft 143 kts 72°
2026-05-04 16:06 -37.02190 174.75055 454 ft 151 kts 73°
2026-05-04 16:07 -37.01746 174.76673 151 ft 143 kts 73°
2026-05-04 16:07 -37.01130 174.78853 33 ft 35 kts 58°
2026-05-04 16:08 -37.01033 174.78996 31 ft 21 kts 43°
2026-05-04 16:08 -37.00911 174.78984 30 ft 15 kts 252°
2026-05-04 16:09 -37.01043 174.78498 35 ft 26 kts 249°
2026-05-04 16:09 -37.01164 174.78069 33 ft 26 kts 249°
2026-05-04 16:10 -37.01178 174.77729 28 ft 19 kts 348°
2026-05-04 16:11 -37.00786 174.77561 31 ft 20 kts 343°
2026-05-04 16:11 -37.00685 174.77609 36 ft 17 kts 72°
2026-05-04 16:12 -37.00562 174.77929 34 ft 10 kts 339°
2026-05-04 16:12 -37.00504 174.77896 37 ft 0 kts 342°